Total_Precipitation_Accumulation
0.00 0.00 0.00 0.00 0.00 0.00 0.00 0.01 0.03 0.01 0.00 0.00 0.00 0.01 0.02 0.03 0.08 0.10 0.14 0.29 0.47 0.64 0.89 1.10 1.24 1.23 1.42 1.60 1.81 1.92 2.10 2.55 3.01 3.02 2.74 2.55 2.29 2.10 1.94 1.83 1.78 1.81 1.81 1.97
0.00 0.00 0.00 0.00 0.00 0.00 0.00 0.01 0.01 0.00 0.00 0.00 0.00 0.02 0.05 0.11 0.21 0.22 0.22 0.33 0.53 0.78 1.09 1.35 1.45 1.47 1.58 1.91 2.30 2.49 2.63 3.07 3.37 3.30 3.18 3.00 2.82 2.47 2.35 2.22 2.10 1.90 1.82 1.93
0.01 0.01 0.00 0.00 0.00 0.00 0.00 0.00 0.00 0.00 0.00 0.00 0.01 0.12 0.19 0.28 0.34 0.36 0.40 0.49 0.58 0.73 1.02 1.23 1.22 1.28 1.40 1.56 1.79 2.09 2.52 2.98 3.16 3.26 3.22 3.12 3.05 2.64 2.48 2.34 2.18 2.00 1.88 1.85
0.00 0.00 0.00 0.00 0.01 0.00 0.00 0.01 0.00 0.00 0.00 0.02 0.05 0.17 0.33 0.47 0.54 0.50 0.48 0.53 0.63 0.91 1.13 1.03 0.95 1.06 1.16 1.17 1.43 1.70 2.09 2.46 2.71 2.87 2.90 2.95 2.86 2.67 2.59 2.41 2.11 1.90 1.78 1.78
0.01 0.00 0.00 0.02 0.01 0.00 0.00 0.00 0.00 0.00 0.00 0.01 0.04 0.14 0.37 0.62 0.74 0.55 0.53 0.60 0.77 0.98 0.96 0.86 0.88 1.02 1.07 1.13 1.36 1.58 1.82 2.12 2.38 2.49 2.49 2.49 2.40 2.33 2.27 2.13 1.91 1.76 1.65 1.59
0.01 0.02 0.02 0.01 0.01 0.00 0.00 0.00 0.01 0.02 0.06 0.13 0.17 0.25 0.47 0.71 0.74 0.51 0.50 0.51 0.63 0.81 0.85 0.88 0.94 1.01 1.09 1.28 1.46 1.68 1.89 2.13 2.27 2.12 1.97 1.95 1.96 2.00 1.93 1.80 1.65 1.49 1.41 1.34
0.07 0.06 0.04 0.02 0.02 0.02 0.01 0.03 0.13 0.25 0.37 0.43 0.37 0.34 0.52 0.54 0.47 0.42 0.45 0.48 0.55 0.65 0.72 0.77 0.96 1.18 1.23 1.20 1.22 1.42 1.71 2.01 2.05 1.88 1.70 1.62 1.61 1.67 1.66 1.57 1.49 1.43 1.31 1.23
0.16 0.15 0.06 0.05 0.06 0.07 0.05 0.09 0.22 0.25 0.22 0.26 0.28 0.48 0.66 0.54 0.44 0.43 0.47 0.50 0.49 0.44 0.38 0.39 0.48 0.59 0.57 0.57 0.58 0.64 0.77 0.99 1.11 1.09 1.09 1.09 1.13 1.20 1.26 1.35 1.32 1.32 1.27 1.16
0.08 0.07 0.04 0.07 0.11 0.12 0.17 0.19 0.16 0.26 0.23 0.25 0.31 0.54 0.57 0.49 0.47 0.45 0.45 0.44 0.39 0.33 0.27 0.26 0.29 0.32 0.36 0.37 0.42 0.50 0.58 0.65 0.71 0.71 0.70 0.72 0.78 0.88 0.95 1.02 1.06 1.10 1.10 1.04
0.03 0.02 0.02 0.03 0.07 0.11 0.13 0.19 0.32 0.48 0.48 0.37 0.33 0.64 0.87 0.86 0.77 0.64 0.57 0.53 0.43 0.33 0.28 0.27 0.28 0.31 0.40 0.48 0.57 0.62 0.62 0.58 0.54 0.54 0.55 0.54 0.59 0.65 0.71 0.75 0.77 0.78 0.80 0.83
0.01 0.01 0.04 0.09 0.13 0.14 0.14 0.20 0.35 0.48 0.50 0.50 0.48 0.60 0.55 0.64 0.73 0.82 0.83 0.69 0.48 0.35 0.29 0.29 0.28 0.31 0.36 0.45 0.52 0.59 0.60 0.57 0.54 0.52 0.53 0.52 0.52 0.52 0.54 0.60 0.61 0.64 0.65 0.67
0.01 0.02 0.05 0.09 0.08 0.06 0.12 0.20 0.33 0.50 0.54 0.55 0.57 0.60 0.35 0.37 0.49 0.59 0.58 0.46 0.33 0.27 0.25 0.24 0.23 0.24 0.28 0.35 0.42 0.46 0.48 0.52 0.52 0.47 0.48 0.50 0.48 0.45 0.46 0.48 0.49 0.52 0.55 0.58
0.01 0.03 0.08 0.21 0.22 0.11 0.14 0.14 0.22 0.32 0.41 0.45 0.56 0.62 0.37 0.37 0.44 0.47 0.45 0.39 0.30 0.27 0.26 0.25 0.23 0.24 0.26 0.32 0.39 0.43 0.44 0.48 0.50 0.47 0.47 0.44 0.47 0.48 0.45 0.39 0.38 0.38 0.43 0.49
0.01 0.01 0.03 0.09 0.09 0.06 0.10 0.12 0.16 0.23 0.35 0.32 0.30 0.41 0.41 0.40 0.42 0.42 0.39 0.32 0.26 0.23 0.23 0.22 0.24 0.26 0.27 0.27 0.29 0.34 0.42 0.50 0.46 0.43 0.42 0.41 0.40 0.40 0.42 0.40 0.37 0.35 0.36 0.41
0.00 0.01 0.01 0.02 0.03 0.05 0.08 0.11 0.13 0.17 0.19 0.27 0.25 0.34 0.42 0.38 0.34 0.31 0.30 0.27 0.22 0.20 0.18 0.17 0.17 0.18 0.19 0.22 0.25 0.29 0.30 0.38 0.44 0.45 0.42 0.41 0.40 0.37 0.34 0.32 0.30 0.30 0.30 0.29
0.01 0.01 0.02 0.07 0.11 0.12 0.14 0.15 0.14 0.14 0.14 0.17 0.22 0.30 0.28 0.25 0.25 0.26 0.26 0.24 0.22 0.17 0.14 0.12 0.11 0.11 0.12 0.14 0.18 0.21 0.22 0.27 0.33 0.36 0.34 0.37 0.38 0.37 0.36 0.31 0.27 0.26 0.26 0.28
0.01 0.01 0.01 0.07 0.17 0.18 0.24 0.16 0.15 0.16 0.15 0.23 0.37 0.39 0.29 0.27 0.24 0.21 0.18 0.16 0.12 0.09 0.08 0.07 0.06 0.06 0.07 0.07 0.09 0.16 0.20 0.21 0.25 0.28 0.30 0.33 0.37 0.40 0.38 0.29 0.26 0.25 0.25 0.28
0.02 0.01 0.03 0.06 0.16 0.26 0.22 0.07 0.05 0.08 0.08 0.10 0.17 0.18 0.18 0.20 0.17 0.13 0.10 0.08 0.06 0.04 0.03 0.03 0.02 0.02 0.03 0.04 0.06 0.13 0.20 0.23 0.26 0.31 0.36 0.38 0.38 0.41 0.41 0.35 0.32 0.31 0.31 0.32
0.01 0.01 0.02 0.05 0.08 0.17 0.09 0.04 0.05 0.09 0.10 0.05 0.08 0.09 0.08 0.07 0.07 0.08 0.04 0.02 0.01 0.01 0.01 0.01 0.01 0.02 0.03 0.05 0.09 0.15 0.20 0.26 0.32 0.37 0.41 0.42 0.43 0.44 0.44 0.43 0.43 0.44 0.45 0.38
0.01 0.01 0.01 0.02 0.07 0.14 0.08 0.04 0.06 0.08 0.20 0.11 0.07 0.05 0.03 0.02 0.06 0.08 0.02 0.00 0.00 0.00 0.00 0.01 0.01 0.03 0.06 0.09 0.14 0.22 0.25 0.32 0.36 0.36 0.38 0.37 0.42 0.48 0.50 0.52 0.54 0.55 0.55 0.48
0.01 0.01 0.01 0.02 0.06 0.07 0.02 0.03 0.05 0.15 0.24 0.05 0.01 0.01 0.01 0.02 0.05 0.03 0.01 0.00 0.00 0.00 0.01 0.02 0.03 0.08 0.13 0.13 0.19 0.25 0.28 0.32 0.34 0.38 0.39 0.40 0.44 0.49 0.53 0.61 0.66 0.69 0.66 0.63
0.01 0.01 0.02 0.03 0.08 0.10 0.02 0.01 0.03 0.05 0.04 0.02 0.02 0.02 0.02 0.01 0.01 0.01 0.01 0.01 0.01 0.02 0.02 0.03 0.06 0.12 0.18 0.20 0.27 0.31 0.32 0.34 0.38 0.43 0.43 0.43 0.48 0.41 0.42 0.62 0.71 0.77 0.78 0.73
0.00 0.01 0.02 0.04 0.06 0.03 0.01 0.01 0.02 0.02 0.03 0.03 0.02 0.02 0.01 0.01 0.01 0.01 0.01 0.02 0.03 0.03 0.04 0.06 0.10 0.14 0.17 0.23 0.36 0.46 0.46 0.46 0.49 0.54 0.56 0.56 0.54 0.55 0.60 0.69 0.75 0.77 0.79 0.78
0.00 0.01 0.02 0.03 0.02 0.01 0.02 0.02 0.02 0.02 0.02 0.01 0.01 0.01 0.01 0.01 0.02 0.02 0.03 0.02 0.03 0.03 0.04 0.06 0.10 0.16 0.22 0.27 0.37 0.49 0.54 0.54 0.58 0.63 0.64 0.68 0.72 0.71 0.72 0.82 0.85 0.83 0.82 0.83
0.00 0.01 0.03 0.06 0.04 0.02 0.03 0.02 0.01 0.00 0.00 0.00 0.01 0.01 0.01 0.02 0.02 0.02 0.02 0.02 0.03 0.04 0.05 0.07 0.13 0.21 0.25 0.29 0.37 0.45 0.52 0.60 0.68 0.70 0.68 0.72 0.80 0.87 0.88 0.87 0.86 0.83 0.85 0.78
0.01 0.03 0.05 0.07 0.06 0.05 0.04 0.02 0.01 0.01 0.01 0.01 0.01 0.01 0.01 0.02 0.02 0.02 0.02 0.03 0.04 0.06 0.08 0.12 0.17 0.22 0.27 0.30 0.38 0.47 0.58 0.67 0.80 0.80 0.75 0.74 0.76 0.82 0.85 0.85 0.73 0.60 0.57 0.50